P/2010 H4 ( Scotti )

Japanese version
Home page
Updated on October 3, 2011

---------------------------------------------------------------------

* Profile

Discovery Date April 20, 2010
Magnitude 21.0 mag
Discoverer J. V. Scotti (Spacewatch)

* Orbital Elements

Epoch 2010 June 13.0 TT = JDT 2455360.5
T 2010 June 19.87200 TT                                 MPC
q   4.8303021            (2000.0)            P               Q
n   0.05803482     Peri.  179.76212     -0.71211910     +0.70147736
a   6.6070913      Node    44.83009     -0.64419314     -0.63670828
e   0.2689215      Incl.    2.32203     -0.27910856     -0.32020632
P  17.0
From 49 observations 2010 Apr. 20-June 13, mean residual 0".4.

* Magnitudes Graph

        m1 = 10.5 + 5 log d + 10.0 log r

---------------------------------------------------------------------

The orbital elements are published on M.P.E.C. 2010-X76.
The magnitudes graphs are made with Comet for Windows.

---------------------------------------------------------------------

Copyright(C) Seiichi Yoshida (comet@aerith.net). All rights reserved.